Poughkeepsie, NY

3:39 AM EST on November 23, 2017 (GMT -0500)
Dutchess County

Weather History for KPOU - February, 2011

Change the Weather History Date:

Thursday, February 17, 2011

  Actual Average Record
Temperature  
Mean Temperature 45 °F 29 °F  
Max Temperature 57 °F 40 °F 60 °F (1981)
Min Temperature 32 °F 18 °F -12 °F (1963)
Degree Days  
Heating Degree Days 20 36  
Month to date heating degree days 651 637  
Since 1 July heating degree days 4260 4189  
Cooling Degree Days 0 0  
Month to date cooling degree days 0 0  
Year to date cooling degree days 0 0  
Moisture  
Dew Point 30 °F    
Average Humidity 64    
Maximum Humidity 82    
Minimum Humidity 35    
Precipitation  
Precipitation 0.00 in 0.09 in 0.83 in (1954)
Month to date precipitation 1.53 1.58  
Year to date precipitation 3.31 4.66  
Sea Level Pressure  
Sea Level Pressure 30.06 in    
Wind  
Wind Speed 2 mph (SW)    
Max Wind Speed 10 mph    
Max Gust Speed 14 mph    
Visibility 10 miles    
Events      
T = Trace of Precipitation, MM = Missing Value Source: NWS Daily Summary

Daily Weather History Graph

Daily Weather History Graph

Search for Another Location

Airport or City:

Trip Planner

Search our weather history database for the weather conditions in past years. The results will help you decide how hot, cold, wet, or windy it might be!

Date:

Astronomy

Feb. 17, 2011 Rise Set
Actual Time 6:48 AM EST 5:31 PM EST
Civil Twilight 6:20 AM EST 5:59 PM EST
Nautical Twilight 5:47 AM EST 6:32 PM EST
Astronomical Twilight 5:15 AM EST 7:04 PM EST
Moon 5:05 PM EST (2/17) 6:01 AM EST (2/17)
Length of Visible Light 11h 39m
Length of Day
10h 42m
Waxing Gibbous, 99% of the Moon is Illuminated
Feb 17
Waxing Gibbous
Feb 18
Full
Feb 24
Last Quarter
Mar 4
New
Mar 12
First Quarter

Hourly Weather History & Observations

Time (EST) Temp. Windchill Dew Point Humidity Pressure Visibility Wind Dir Wind Speed Gust Speed Precip Events Conditions
12:53 AM 35.1 °F - 28.0 °F 76% 30.13 in 10.0 mi Calm Calm - N/A   Mostly Cloudy
1:53 AM 33.1 °F - 28.0 °F 82% 30.13 in 10.0 mi Calm Calm - N/A   Overcast
2:53 AM 32.0 °F - 27.0 °F 82% 30.12 in 10.0 mi Calm Calm - N/A   Clear
3:53 AM 33.1 °F - 27.0 °F 78% 30.12 in 10.0 mi Calm Calm - N/A   Overcast
5:53 AM 36.0 °F - 28.9 °F 76% 30.11 in 10.0 mi Calm Calm - N/A   Mostly Cloudy
6:53 AM 34.0 °F - 28.0 °F 79% 30.12 in 10.0 mi Calm Calm - N/A   Clear
7:53 AM 35.1 °F - 28.9 °F 78% 30.14 in 10.0 mi Calm Calm - N/A   Mostly Cloudy
8:53 AM 39.0 °F - 28.0 °F 65% 30.14 in 10.0 mi Calm Calm - N/A   Mostly Cloudy
9:53 AM 46.0 °F 43.1 °F 28.0 °F 50% 30.12 in 10.0 mi SW 5.8 mph - N/A   Clear
10:53 AM 46.0 °F 43.1 °F 28.9 °F 51% 30.10 in 10.0 mi WSW 5.8 mph - N/A   Clear
11:53 AM 48.9 °F - 28.9 °F 46% 30.08 in 10.0 mi WSW 4.6 mph - N/A   Mostly Cloudy
12:53 PM 55.0 °F - 28.9 °F 37% 30.05 in 10.0 mi SW 8.1 mph - N/A   Clear
1:53 PM 55.9 °F - 30.9 °F 39% 30.02 in 10.0 mi SSW 6.9 mph - N/A   Partly Cloudy
2:53 PM 55.9 °F - 30.9 °F 39% 30.01 in 10.0 mi WSW 4.6 mph - N/A   Partly Cloudy
3:53 PM 55.9 °F - 32.0 °F 40% 30.00 in 10.0 mi Calm Calm - N/A   Overcast
4:53 PM 55.0 °F - 30.9 °F 40% 30.00 in 10.0 mi SSE 3.5 mph - N/A   Clear
5:53 PM 45.0 °F - 32.0 °F 60% 30.00 in 10.0 mi Calm Calm - N/A   Clear
6:53 PM 42.1 °F - 32.0 °F 67% 30.02 in 10.0 mi Calm Calm - N/A   Clear
7:53 PM 39.2 °F - 30.2 °F 70% 30.00 in 10.0 mi Calm Calm - N/A   Clear
8:53 PM 37.9 °F - 30.9 °F 76% 30.00 in 10.0 mi Calm Calm - N/A   Clear
9:53 PM 36.0 °F - 30.9 °F 82% 29.99 in 10.0 mi Calm Calm - N/A   Clear
10:53 PM 36.0 °F - 30.9 °F 82% 29.99 in 10.0 mi Calm Calm - N/A   Clear
11:53 PM 35.1 °F - 30.9 °F 85% 29.95 in 10.0 mi Calm Calm - N/A   Clear